Volver al catálogo

NIMBUS 2 DEB

ActivoLEO
NORAD 37888·DEBRIS·🇺🇸 United States

Lanzado May 15, 1966 desde Vandenberg Space Force Base

Loading…

Próximos Pases (próximas 24 horas)

TLE

ActualizadoSource: Space-Track

Época: Sep 14, 2026, 15:07 UTC

1 37888U 66040AT  26257.63027067  .00001170  00000-0  18934-2 0  9999
2 37888 100.6066 299.3702 0044349  15.3788 135.9762 13.50407846848183

Sigue NIMBUS 2 DEB en tiempo real con AllMySat

Download on the App Store